Location: Ellensen
(51.8050°N, 9.7419°E)
Time: 08:14:56
(UTC+00:00)

Daily predictions for brighter satellites

Satellite Brightness Start Highest point End
(mag) Time Altitude Azimuth Time Altitude Azimuth Time Altitude Azimuth
Cosmos 2344 4.3 19:41:50 10° NW 19:50:01 75° SW 20:01:17 10° SSE
Resurs 01 Rocket 3.3 19:51:31 10° SSW 19:55:33 34° W 19:59:37 10° NNW
Cosmos 2237 Rocket 2.5 19:53:51 10° SW 19:59:33 77° WNW 20:05:18 10° NNE
USA 308 4.2 19:58:15 10° WSW 19:59:52 15° SW 20:01:41 10° S
BREEZE-M DEB (TANK) 3.2 19:57:36 10° SW 20:00:05 22° SSE 20:01:52 10° ESE
ATLAS 3B R/B 3.2 19:53:40 10° NW 20:01:30 76° SW 20:09:16 10° SSE
Cosmos 1378 2.9 19:58:48 10° S 20:02:01 57° E 20:05:16 10° NNE
BREEZE-M DEB (TANK) 4.4 20:00:13 10° SW 20:03:45 34° SE 20:12:02 10° E
Aureole 3 Rocket 3.0 20:02:11 10° N 20:05:39 60° ENE 20:10:07 10° SSE
Cosmos 921 Rocket 4.1 20:02:19 10° SSE 20:06:04 27° E 20:09:51 10° NE
GEOS 3 Rocket 4.3 20:02:14 10° ENE 20:06:52 32° ESE 20:11:24 10° S
Cosmos 1980 4.3 20:02:06 10° SW 20:07:43 65° NW 20:13:22 10° NNE
Cosmos 923 Rocket 4.0 20:03:10 10° SSW 20:08:27 71° ESE 20:13:47 10° NNE
SPOT 5 2.9 20:03:53 10° S 20:08:33 77° WSW 20:13:02 10° NNW
USA 306 3.1 20:05:02 10° W 20:08:43 60° N 20:12:36 10° E
Landsat 4 3.6 20:09:02 10° SSE 20:12:30 65° ENE 20:16:00 10° N
ARGOS Delta rocket 4.0 20:10:42 10° SSE 20:15:50 74° ENE 20:20:43 10° N
Okean O Rocket 3.7 20:13:53 10° SSW 20:17:32 25° W 20:21:12 10° NW
USA 234 4.0 20:11:22 10° ENE 20:17:46 57° N 20:24:07 10° WNW
Terra 1.8 20:14:22 10° SSE 20:19:03 76° ENE 20:23:47 10° NNW
Cosmos 1656 Rocket 3.7 20:16:36 10° NNW 20:22:05 88° ENE 20:27:24 11° SSE
Cosmos 1371 Rocket 4.2 20:17:13 10° NNW 20:22:35 79° WSW 20:27:56 10° SSE
ERS-1 Rocket 3.0 20:19:33 10° SSE 20:24:35 85° WSW 20:29:40 10° NNW
ATLAS 2AS CENTAUR R/B 3.2 20:19:42 10° SW 20:27:03 73° NW 20:34:08 10° NE
Meteor 1-14 Rocket 4.4 20:21:50 10° N 20:27:39 68° ENE 20:33:21 11° SSE
Lacrosse 4 Rocket 4.1 20:26:48 10° N 20:28:21 12° NNE 20:29:55 10° NE
Cosmos 1842 Rocket 4.4 20:24:38 11° SSE 20:28:30 34° E 20:32:30 10° NNE
SPOT 3 Rocket 3.6 20:24:09 10° SSE 20:29:17 75° ENE 20:34:26 10° NNW
USA 59 Rocket 1.8 20:27:43 10° NNW 20:30:24 21° NNE 20:33:35 10° ENE
Cosmos 1782 4.4 20:27:21 10° SW 20:30:51 34° WNW 20:34:23 10° N
Meteor 1-11 Rocket 4.5 20:25:38 10° N 20:30:56 40° ENE 20:35:44 13° SE
Cosmos 1943 Rocket 4.0 20:29:14 10° NW 20:33:49 26° WSW 20:38:22 10° SSW
USA 281 3.3 20:27:32 11° SE 20:33:56 82° ENE 20:40:34 10° NNW
Meteor 1-26 Rocket 4.5 20:28:19 10° SSW 20:34:22 87° W 20:40:27 10° NNE
Cosmos 1743 2.6 20:34:28 10° NNW 20:38:06 83° W 20:41:25 12° S
ISS -3.8 20:37:13 10° W 20:40:33 80° SSW 20:43:45 11° ESE
ARIANE 5 R/B 4.2 20:38:38 10° ESE 20:42:00 22° ENE 20:45:20 10° N
USA 245 3.4 20:42:40 11° SSW 20:44:37 32° W 20:46:42 10° NNW
Cosmos 2279 Rocket 4.1 20:39:17 10° N 20:45:29 68° ENE 20:50:55 14° SSE
Cosmos 2297 4.0 20:40:37 10° NW 20:46:19 64° WSW 20:51:24 13° SSE
Cosmos 1634 Rocket 4.1 20:40:07 10° N 20:46:28 86° W 20:52:38 10° S
SL-24 R/B - RUBIN 2 4.5 20:41:09 10° SW 20:47:24 80° SE 20:54:08 10° NE
USA 290 4.4 20:48:01 10° NW 20:50:26 20° WSW 20:52:52 10° SSW
Cosmos 2112 Rocket 4.1 20:45:33 10° SSW 20:50:53 85° WNW 20:56:14 10° NNE
Cosmos 1766 Rocket 4.0 20:46:47 10° NNW 20:51:10 61° W 20:55:31 10° S
USA 229 DEB 4.0 20:47:42 10° NW 20:55:02 79° SW 21:01:46 16° SE
USA 229 4.0 20:47:47 10° NW 20:55:08 79° SW 21:01:53 16° SE
Cosmos 1726 1.7 20:53:32 10° N 20:56:41 66° ENE 20:58:35 21° SSE
Spot 2 Rocket 3.9 20:54:06 10° S 20:58:59 58° WSW 21:03:59 10° NNW
Cosmos 1680 Rocket 4.0 20:55:57 10° SW 21:01:11 63° WNW 21:06:27 10° NNE
Meteor 2-6 Rocket 4.2 20:59:25 10° S 21:05:04 88° ESE 21:10:36 10° NNE
USA 32 4.4 21:02:15 10° SSW 21:07:27 66° W 21:12:40 10° N
Cosmos 1743 Rocket 4.2 21:03:55 10° N 21:08:07 43° ENE 21:10:51 20° SE
Tsikada Rocket 4.5 21:03:55 10° SSW 21:10:02 62° WNW 21:16:15 10° N
Sich 1 3.4 21:08:54 10° N 21:13:11 51° ENE 21:15:51 21° SE
MetOp-A 3.8 21:11:24 18° S 21:14:39 79° WSW 21:19:27 10° NNW
USA 276 2.9 21:13:39 10° WSW 21:15:14 22° SW 21:15:14 22° SW
Cosmos 2263 4.4 21:10:11 10° NW 21:15:49 66° WSW 21:20:00 19° SSE
SL-16 R/B 2.7 21:11:04 10° SW 21:16:43 64° NW 21:22:23 10° NNE
MOS 1 Rocket 4.1 21:13:56 13° S 21:18:19 53° W 21:23:30 10° NNW
Cosmos 1603 4.3 21:15:41 18° SSE 21:19:13 37° ESE 21:24:25 10° NE
Cosmos 1536 2.7 21:15:58 10° N 21:19:52 87° W 21:22:15 23° S
Cosmos 1975 4.3 21:16:36 10° NNE 21:19:53 24° ENE 21:21:58 16° ESE
Lacrosse 5 3.7 21:16:30 10° W 21:20:06 19° SW 21:23:08 12° SSW
Cosmos 2180 Rocket 4.5 21:14:44 10° N 21:20:59 87° ENE 21:25:40 18° S
Ariane Rocket 4.1 21:16:49 10° SSW 21:21:32 39° W 21:26:19 10° NNW
USA 267 4.4 21:17:15 10° E 21:21:52 20° SE 21:23:24 18° SE
Lacrosse 5 rocket 1.8 21:18:29 10° WSW 21:22:45 67° NNW 21:26:56 10° ENE
Cosmos 1452 Rocket 3.5 21:17:57 10° NNW 21:23:13 80° WSW 21:26:45 21° SSE
Cosmos 1408 Rocket 3.6 21:18:47 10° NNW 21:23:15 84° W 21:26:12 21° S
Spot 1 4.0 21:19:49 10° NNE 21:23:53 79° WNW 21:27:37 12° SSW
Meteor 1-27 Rocket 3.9 21:22:18 20° SSE 21:26:01 53° E 21:31:23 10° NNE
Cosmos 1340 2.9 21:24:04 10° N 21:27:22 45° ENE 21:28:49 27° SE
Okean 1 3.3 21:26:00 24° S 21:28:07 61° E 21:31:57 10° NNE
Cosmos 2369 Rocket 3.0 21:23:08 10° NW 21:28:21 41° WSW 21:32:23 16° S
Cosmos 2221 4.2 21:25:00 10° SW 21:28:52 32° WNW 21:32:47 10° N
Cosmos 1626 4.1 21:31:50 11° E 21:32:14 12° E 21:33:26 10° ENE
USA 306 2.5 21:38:48 10° WNW 21:42:40 86° SSW 21:45:08 22° ESE
Cosmos 921 Rocket 4.2 21:39:48 10° SW 21:44:04 43° WNW 21:48:23 10° NNE
GEOS 3 Rocket 4.0 21:40:00 10° NE 21:45:11 67° NW 21:50:16 10° WSW
Landsat 5 4.3 21:47:56 10° N 21:51:32 42° WNW 21:54:55 11° SW
Meteor 2-17 Rocket 4.4 21:50:27 21° S 21:54:42 79° E 22:00:47 10° NNE
Cosmos 1500 Rocket 4.0 21:51:19 10° NNW 21:55:33 53° W 21:57:58 23° SSW
SL-8 R/B 4.1 21:51:20 10° SW 21:55:43 38° SSE 22:00:07 10° E
Terra 4.1 21:54:12 10° SW 21:57:13 17° W 22:00:14 10° NW
Cosmos 1733 3.3 21:55:15 10° NNW 21:58:43 59° W 22:00:07 32° SSW
Cosmos 1943 3.2 21:54:17 10° SSW 21:59:59 84° WNW 22:05:42 10° NNE
USA 234 3.5 21:53:55 10° ESE 22:00:28 74° NNE 22:07:00 10° WNW
Spot 4 4.1 21:58:25 26° SE 22:00:59 57° ENE 22:05:41 10° N
ALOS 2 3.5 21:58:50 22° ESE 22:01:08 40° ENE 22:05:16 10° N
Meteor 2-4 Rocket 4.2 22:00:28 25° SSE 22:03:38 50° E 22:09:22 10° NNE
H-2A R/B 2.4 22:02:30 32° SSE 22:04:21 79° ENE 22:08:34 10° NNW
Cosmos 1048 Rocket 4.3 21:59:16 10° SW 22:04:23 64° WNW 22:09:30 10° NNE
Cosmos 1805 Rocket 4.1 22:00:12 10° NNW 22:04:28 53° W 22:06:48 25° SSW
IRIDIUM 104 4.3 22:00:07 10° N 22:05:23 81° E 22:08:14 28° S
Lacrosse 4 Rocket 2.5 22:03:58 10° NNW 22:07:46 37° NE 22:10:34 16° ESE
Cosmos 1151 Rocket 3.0 22:08:37 29° S 22:10:47 87° E 22:15:10 10° NNE
Cosmos 1666 Rocket 3.6 22:08:12 10° N 22:12:32 71° ENE 22:14:23 33° SSE
Cosmos 1092 Rocket 4.1 22:10:25 26° SSE 22:14:04 64° E 22:20:19 10° NNE
IRIDIUM 114 4.3 22:09:17 10° N 22:14:32 86° W 22:17:22 28° S
Cosmos 1302 Rocket 4.0 22:09:24 10° NNW 22:14:35 70° WSW 22:17:13 29° S
Cosmos 1656 4.0 22:10:04 10° NNW 22:15:27 58° NE 22:19:02 21° SE
Cosmos 1428 Rocket 4.4 22:11:50 24° S 22:15:43 82° E 22:21:51 10° NNE
Cosmos 1633 Rocket 3.2 22:11:50 10° N 22:16:14 65° ENE 22:18:08 32° SSE
SAR-Lupe-3 4.5 22:15:44 42° SSE 22:16:49 76° ENE 22:20:21 10° NNW
ISS -2.7 22:13:59 10° W 22:16:33 29° SW 22:16:33 29° SW
ARIANE 5 R/B 3.0 22:16:04 28° SSW 22:18:06 53° W 22:22:20 10° NNW
ATLAS 2AS CENTAUR R/B 4.4 22:12:29 10° W 22:19:02 36° NNW 22:25:22 10° NE
Cosmos 1340 Rocket 3.0 22:17:22 27° SSW 22:19:23 68° WNW 22:23:24 10° N
USA 59 Rocket -0.1 22:16:42 10° NW 22:20:25 88° NE 22:22:59 27° SE
NOSS 2-1 (E) 3.4 22:17:34 10° NW 22:21:18 89° NE 22:23:50 27° SE
MINOTAUR 4 R/B 4.2 22:18:28 10° N 22:21:24 52° WNW 22:22:21 34° SW
Cosmos 1992 Rocket 4.0 22:17:45 10° NNW 22:23:01 76° ENE 22:25:48 28° SE
IRIDIUM 103 4.4 22:18:27 10° N 22:23:41 73° W 22:26:30 28° S
H-2A R/B 3.7 22:21:10 10° NE 22:24:37 22° E 22:25:53 19° ESE
CZ-2C R/B 3.9 22:20:07 10° N 22:24:40 67° WNW 22:27:22 23° SSW
Cosmos 1697 Rocket 3.9 22:20:53 10° NNW 22:26:07 37° NE 22:31:17 10° ESE
Cosmos 1766 3.5 22:26:01 10° N 22:29:42 52° ENE 22:30:52 36° SE
Cosmos 614 Rocket 4.1 22:27:44 31° S 22:30:05 58° ESE 22:35:13 10° NNE
Cosmos 1980 Rocket 4.1 22:26:35 10° NNW 22:31:18 25° NE 22:35:59 10° E
Cosmos 2195 Rocket 4.4 22:27:32 24° SSW 22:31:22 86° W 22:37:32 10° N
NOSS 2-1 (D) 3.4 22:29:12 10° NW 22:32:55 72° SW 22:34:55 33° SSE
Cosmos 1470 4.0 22:30:12 10° N 22:33:31 29° ENE 22:34:54 23° ESE
Cosmos 1707 4.5 22:34:21 17° ESE 22:35:05 18° E 22:37:40 10° NE
Nadezhda 4 Rocket 4.5 22:30:38 16° SSW 22:35:27 55° WNW 22:41:36 10° N
Cosmos 1805 4.0 22:35:28 10° NNW 22:38:58 40° W 22:40:09 30° SW
Cosmos 2360 4.4 22:46:38 10° NNW 22:52:22 68° NE 22:56:07 22° SE
Spot 2 4.5 22:50:57 34° SSW 22:52:47 60° WSW 22:57:33 10° NNW
Cosmos 1975 3.8 22:52:14 10° NNW 22:55:52 36° W 22:57:09 28° SW
Lacrosse 5 rocket 2.8 22:57:35 10° WNW 23:01:36 40° N 23:05:29 10° ENE
NOSS 3-3 (A) 4.3 22:59:40 31° SSE 23:01:42 41° ESE 23:07:37 10° NE
Cosmos 1626 2.3 23:04:41 42° WSW 23:05:22 52° WNW 23:08:33 10° N
USA 267 3.3 22:59:21 10° ENE 23:05:50 60° SE 23:10:42 18° SW
Cosmos 1269 Rocket 4.1 23:04:36 33° S 23:06:50 63° ESE 23:12:04 10° NNE
NOSS 2-1 (C) 4.1 23:04:28 10° WNW 23:08:07 40° SW 23:09:08 35° SSW
Cosmos 1674 2.6 23:07:50 49° SE 23:08:25 58° E 23:11:52 10° NNE
Cosmos 2082 Rocket 4.3 23:08:56 10° ESE 23:11:15 13° E 23:13:34 10° ENE
PSLV R/B 3.7 23:07:41 10° NNE 23:12:18 70° ESE 23:13:59 38° S
NOSS 3-4 (A) 4.2 23:08:54 10° NW 23:15:26 63° NE 23:23:00 10° ESE
NOSS 3-4 (C) 4.2 23:08:58 10° NW 23:15:29 62° NE 23:23:02 10° ESE
USA 306 4.0 23:12:49 10° W 23:15:15 24° WSW 23:15:15 24° WSW
Cosmos 1833 Rocket 3.3 23:17:10 29° SSE 23:19:21 42° ESE 23:24:37 10° NE
Cosmos 44 Rocket 3.7 23:17:07 10° NW 23:22:06 63° NE 23:26:07 15° ESE
Cosmos 2315 Rocket 4.4 23:17:22 10° N 23:23:35 59° ENE 23:27:37 23° SSE
S3M 4.1 23:18:22 10° N 23:24:47 83° E 23:28:27 28° SSE
NOSS 3-3 (C) 4.0 23:26:06 31° S 23:28:40 57° SE 23:34:59 10° NE
SL-24 R/B 4.2 23:25:05 10° NNE 23:29:30 80° WNW 23:31:32 34° SSW
Cosmos 1515 Rocket 3.6 23:31:37 36° SSW 23:33:17 68° WNW 23:37:36 10° N
GP-B 3.3 23:29:47 10° N 23:34:11 64° E 23:35:54 35° SSE
Cosmos 1400 Rocket 4.5 23:34:57 20° ESE 23:36:23 24° E 23:39:38 10° NE
Cosmos 1553 Rocket 4.4 23:30:45 10° NNW 23:36:34 49° W 23:39:39 26° SSW
Cosmos 1763 Rocket 4.4 23:31:33 10° NNW 23:36:41 46° ENE 23:41:21 12° SE
ALOS 2 3.9 23:36:13 23° SW 23:37:35 27° W 23:41:22 10° NW
SL-8 R/B 3.6 23:33:03 10° WSW 23:37:44 59° S 23:42:27 10° E
Cosmos 1869 Rocket 3.4 23:36:57 10° N 23:41:18 89° W 23:42:59 38° S
USA 234 3.3 23:38:50 18° SSE 23:43:41 55° SW 23:50:07 10° WNW
Cosmos 1733 Rocket 4.0 23:40:20 10° N 23:44:26 40° ENE 23:46:57 21° SE
Meteor 1-13 Rocket 4.4 23:41:22 30° S 23:44:27 73° E 23:50:22 10° NNE
Lacrosse 4 Rocket 2.1 23:42:20 10° NW 23:46:01 33° WSW 23:46:29 32° SW
Cosmos 1346 Rocket 4.4 23:49:51 10° N 23:53:18 29° ENE 23:55:56 15° ESE
APEX 3.1 23:57:03 38° NNE 23:57:03 38° NNE 23:58:34 10° NNE
